Terminal Aerodrome Forecast
Issued by NWS Springfield, MO

Home | Current Version | Previous Version | Text Only | Print | Product List | Glossary On
Versions: 1 2 3 4 5 6 7 8 9 10 11 12 13 14 15 16 17 18 19 20 21
000
FTUS43 KSGF 260600 AAA
TAFSGF
TAF AMD
KSGF 260605Z 2606/2706 16004KT 5SM BR SKC
     FM261400 16008KT P6SM SKC
     FM261600 18012G20KT P6SM SKC
     FM270000 17008KT P6SM SKC=

USA.gov is the U.S. government's official web portal to all federal, state and local government web resources and services.